GFSSE_sfc_rhum_246.txt.gz
RH
81 92 93 92 92 92 92 92 92 91 91 91 91 91 91 92 92 91 90 89 86 82 79 81 81 78 74 76 81 84 86 88 85 82 76 73 77 80 84 87 87 83 85
76 91 93 92 91 92 92 92 92 92 91 91 91 91 91 91 91 90 90 88 85 80 80 81 80 78 75 77 84 88 88 88 88 85 81 74 76 81 84 87 90 87 86
84 88 90 92 91 91 91 91 91 91 91 91 92 91 90 90 90 90 89 87 84 80 80 80 78 74 75 78 84 84 85 87 87 85 82 86 82 76 84 88 88 86 84
86 89 88 92 90 91 90 91 91 91 91 92 92 92 91 91 90 90 90 89 86 81 79 78 76 74 79 88 89 88 87 84 83 84 86 70 70 76 80 84 83 82 81
88 87 87 92 90 91 91 92 92 92 92 93 92 92 92 92 91 90 91 90 87 82 78 76 77 79 85 88 86 83 82 82 77 75 81 75 80 72 78 83 86 88 88
90 88 94 94 92 91 92 92 93 93 94 94 94 93 92 91 91 91 91 91 87 84 80 79 81 86 87 84 79 78 79 80 71 63 68 78 78 73 77 84 87 89 91
94 91 87 96 93 92 92 92 93 94 94 95 94 94 92 91 91 92 92 92 91 88 86 85 86 86 84 80 75 74 79 77 61 62 74 87 83 75 75 78 84 88 89
94 87 86 96 94 93 93 94 94 94 95 96 95 95 93 92 91 92 92 92 92 91 89 86 84 81 79 78 72 72 78 79 61 73 79 91 84 76 75 78 83 88 88
92 85 85 92 94 95 96 96 96 96 96 96 96 96 95 93 92 92 91 90 89 87 85 82 79 76 76 76 74 73 80 82 67 76 71 91 84 77 76 78 80 82 84
94 88 83 84 95 96 96 97 97 97 97 97 97 96 95 94 94 92 92 90 87 84 82 81 78 76 76 77 76 76 83 81 68 66 78 92 86 77 76 78 80 81 83
94 87 82 80 86 93 95 95 96 96 96 97 97 96 97 97 96 94 94 90 86 84 82 80 78 76 76 80 80 84 86 76 66 87 89 90 86 76 77 80 83 84 84
97 90 85 82 82 82 84 93 96 93 95 96 97 97 98 98 98 93 93 90 86 84 82 80 78 78 81 84 84 83 79 72 69 86 91 92 88 78 78 82 86 85 86
91 94 89 85 85 83 81 88 92 96 98 98 98 98 98 96 98 98 99 96 96 88 92 86 86 88 84 82 76 80 74 72 71 87 89 94 91 81 80 83 85 85 88
87 90 96 90 87 91 83 87 88 96 97 98 98 97 98 99 99 99 99 98 97 97 94 93 93 87 85 78 76 75 75 74 77 91 96 94 93 87 82 83 85 87 87
79 83 92 97 97 98 91 93 96 94 94 94 97 95 94 95 96 98 98 98 97 97 93 92 89 89 85 81 80 78 72 68 71 88 97 95 94 90 85 79 81 85 83
71 77 83 92 92 95 95 94 91 89 90 94 93 89 92 92 88 90 94 92 95 94 92 93 89 89 90 88 78 69 65 68 64 85 90 96 94 92 89 85 82 83 84
66 70 76 82 84 89 89 87 85 84 85 88 88 90 84 90 87 87 89 90 86 87 89 89 93 91 90 84 75 72 69 63 61 68 81 84 89 94 93 90 86 85 85
62 68 70 67 76 79 80 79 77 78 83 82 84 88 84 82 89 82 87 85 81 84 85 85 90 92 86 86 83 78 74 72 65 63 67 69 71 71 94 94 89 85 84
60 63 69 68 73 72 78 74 75 76 78 78 82 84 84 82 82 81 78 83 82 80 83 83 88 91 94 93 80 80 83 86 82 77 67 68 76 78 74 93 92 92 92
56 60 64 69 72 70 78 75 75 76 75 76 80 80 84 82 82 87 75 78 80 83 86 87 84 91 88 90 73 82 86 95 95 93 85 77 75 79 78 78 91 92 93
54 59 64 69 73 74 72 85 78 81 79 78 80 79 82 81 84 86 81 80 84 78 83 84 86 88 93 94 91 89 90 94 91 96 94 85 80 88 91 86 88 83 75
55 60 62 65 72 70 68 70 75 72 80 79 84 86 82 82 85 83 84 85 85 84 84 90 90 95 95 95 92 96 93 93 91 96 95 92 84 64 56 72 77 70 68
53 60 61 64 73 70 66 65 83 88 94 97 94 90 88 85 86 79 91 86 89 82 84 93 94 91 96 96 91 92 96 94 90 93 93 80 70 67 71 80 67 61 64
50 55 58 60 72 71 69 66 70 76 81 77 81 81 84 86 84 85 88 89 85 86 91 90 96 94 94 97 97 96 92 90 89 91 73 66 58 58 70 70 71 67 68
46 52 58 58 66 69 71 68 68 71 70 72 75 87 87 90 87 84 86 89 90 90 90 90 96 94 94 96 96 98 95 95 91 80 77 67 67 69 74 82 74 73 68
45 48 57 60 60 67 70 71 71 68 70 74 78 87 86 88 89 90 87 85 83 89 90 89 92 93 95 96 96 96 94 90 92 94 81 73 69 76 80 81 76 75 78

GFSSE_sfc_rhum_249.txt.gz
RH
88 94 96 94 92 92 92 92 92 92 90 89 89 89 90 91 92 92 90 89 86 80 79 79 76 76 77 78 79 82 85 88 85 81 78 78 79 81 84 87 88 85 85
78 92 96 93 92 91 91 91 92 91 91 91 91 92 92 92 92 91 90 87 84 79 79 79 75 75 79 80 84 87 88 88 88 86 80 78 80 79 84 87 89 87 86
84 91 94 93 91 91 90 91 91 90 90 90 91 92 91 91 91 90 89 87 84 81 78 77 74 75 78 81 86 87 88 88 87 87 83 90 86 80 83 85 87 84 84
87 91 92 93 91 91 90 91 91 90 90 90 90 90 90 90 90 90 89 88 86 81 77 73 73 75 83 89 90 87 84 81 82 85 85 80 75 80 81 80 80 79 82
88 89 91 94 92 91 91 92 92 92 92 91 91 90 90 90 90 91 91 90 86 81 77 74 76 84 89 88 84 82 79 79 80 81 78 82 86 77 81 86 88 87 84
90 88 97 95 92 91 92 92 93 93 94 93 92 92 91 91 91 92 92 90 87 83 78 78 79 85 87 83 80 79 78 74 80 73 77 81 84 76 80 86 89 90 91
92 93 95 96 93 91 91 92 93 94 95 95 94 93 92 91 92 93 94 92 89 87 84 83 85 86 81 77 75 79 79 77 70 77 83 90 88 75 76 82 87 89 90
94 95 94 95 93 92 92 93 94 95 95 96 96 95 93 92 93 93 94 94 93 92 91 88 85 81 77 73 72 79 81 75 73 78 85 93 85 76 75 79 85 88 88
91 92 94 94 94 94 95 96 96 96 96 96 96 96 95 94 94 93 94 93 92 90 88 85 82 77 73 75 73 81 83 77 83 83 78 93 84 77 76 78 80 82 83
94 90 90 96 95 96 96 97 97 97 97 96 97 96 95 94 94 93 93 91 89 87 84 81 78 75 74 74 76 82 86 76 69 74 88 94 86 77 76 78 80 82 83
88 83 81 94 96 97 96 96 96 96 96 97 97 96 96 97 96 95 94 89 86 84 82 80 78 76 76 80 82 85 83 76 70 89 93 90 86 76 78 80 82 83 83
87 84 82 94 87 91 90 96 96 94 96 96 97 97 98 98 98 94 94 90 85 84 82 80 79 78 81 85 85 84 79 72 76 89 94 92 87 77 78 82 84 84 84
88 82 79 79 89 90 88 89 91 94 96 98 98 98 99 98 99 99 99 97 96 88 94 88 88 89 84 84 79 84 78 76 84 92 92 93 90 80 78 82 84 84 86
91 84 78 76 75 77 84 84 82 86 87 90 97 99 99 99 100 99 99 98 97 97 94 94 93 88 86 79 78 79 81 77 79 95 96 94 94 87 80 82 84 85 86
94 85 79 77 80 77 82 80 82 85 88 90 98 98 98 98 99 99 99 98 97 97 95 95 91 89 85 80 79 81 79 74 83 94 97 95 96 94 86 82 83 86 83
86 93 82 80 80 79 81 79 82 93 94 98 98 97 96 96 98 98 99 98 98 97 96 90 87 86 89 88 85 82 79 74 78 92 95 97 95 94 91 86 84 82 82
76 85 95 86 82 85 83 81 87 94 94 96 96 96 92 95 96 96 98 98 97 97 94 94 93 93 95 91 90 85 72 67 60 80 87 92 96 95 93 91 86 86 81
69 79 87 86 96 96 95 95 92 90 92 92 93 93 90 92 91 96 95 95 95 97 97 93 95 96 96 96 94 82 79 74 66 61 72 77 74 74 92 93 90 86 85
66 73 81 81 91 94 94 92 90 89 90 89 91 90 89 88 92 90 90 91 95 93 95 92 95 94 96 96 93 90 85 86 82 82 77 70 73 81 84 95 96 94 90
64 69 74 74 81 84 89 87 87 88 89 86 87 87 89 84 88 91 88 91 92 93 93 96 93 95 95 94 84 86 86 92 97 96 92 87 83 81 87 92 86 91 93
63 68 73 74 76 79 86 87 87 90 87 87 82 84 87 85 86 91 88 86 90 87 88 91 94 94 95 95 96 93 90 92 95 97 96 96 96 93 93 89 82 76 78
62 65 70 72 74 73 72 72 72 76 80 78 82 84 85 87 88 85 85 88 86 88 92 94 92 96 95 97 95 95 93 91 95 96 97 95 84 85 81 71 68 71 77
54 64 68 71 73 71 68 70 86 88 95 94 87 89 85 86 86 84 83 83 89 82 86 93 92 91 96 97 92 93 96 95 96 92 83 75 80 88 71 62 63 67 74
51 55 61 66 72 70 69 75 77 82 84 81 82 86 85 85 86 87 86 82 87 85 90 88 92 94 94 97 97 96 92 92 95 96 61 62 64 69 68 65 67 70 75
43 52 58 64 71 71 70 71 78 80 73 78 81 90 91 90 87 87 85 89 86 90 88 90 94 94 95 96 96 98 95 97 93 94 77 72 66 77 76 73 82 80 78
39 44 60 62 68 73 71 70 76 78 77 81 87 92 92 94 92 91 89 86 85 89 89 89 89 92 92 95 96 96 96 96 97 91 80 69 76 81 78 81 83 87 89

GFSSE_sfc_rhum_252.txt.gz
RH
86 93 92 93 91 91 91 90 90 90 89 89 89 89 90 91 92 91 90 88 84 80 76 76 77 76 75 77 80 83 84 87 85 83 76 76 75 79 80 85 88 82 86
83 93 93 93 92 91 90 90 90 88 88 88 90 90 91 92 92 91 90 86 84 78 75 76 78 76 78 80 84 86 86 88 89 85 83 78 77 79 80 87 90 85 87
80 92 92 92 92 92 90 90 89 88 88 89 90 91 91 91 91 91 89 86 84 79 75 76 79 80 81 83 88 88 88 87 88 87 83 87 84 80 77 82 83 85 86
84 92 91 92 91 92 92 92 91 89 89 90 91 91 91 91 91 90 89 88 84 80 74 75 76 78 84 88 86 83 80 80 86 85 82 84 77 79 80 78 82 80 85
85 91 93 92 90 91 92 92 92 91 92 92 91 91 90 90 90 90 90 89 85 79 74 73 79 84 86 85 82 78 78 78 85 77 81 86 85 78 82 86 86 84 89
89 91 96 95 92 90 91 91 92 92 93 92 92 91 90 90 90 91 91 89 85 81 76 79 84 86 85 82 79 78 78 87 85 74 83 82 85 77 82 87 88 89 91
91 94 96 96 93 91 91 92 92 93 92 92 92 92 91 91 92 93 92 90 87 85 83 82 85 86 82 78 78 80 76 82 75 80 83 87 85 76 78 84 88 89 89
94 96 95 95 93 92 92 93 94 93 94 94 94 94 93 93 94 94 94 93 91 90 88 88 86 83 77 75 78 80 82 78 75 83 87 87 83 76 75 80 86 89 89
93 95 96 95 94 94 96 95 96 95 95 95 96 96 95 95 95 95 95 94 93 91 88 86 84 78 74 76 79 82 82 84 82 85 80 89 84 77 75 78 80 82 83
96 95 97 97 96 96 96 97 97 97 97 96 96 96 95 95 95 94 94 93 90 88 86 83 78 74 74 78 81 82 80 76 82 82 86 90 85 76 76 78 80 82 83
96 95 96 90 97 97 97 96 96 96 96 97 96 96 96 98 97 96 94 90 88 85 82 78 76 74 74 80 82 85 79 72 78 82 89 90 86 76 77 80 82 83 83
97 97 91 85 94 95 92 97 97 94 97 97 98 97 98 98 98 95 93 88 85 83 80 78 77 76 79 82 86 81 76 74 79 85 89 92 87 77 78 82 83 83 83
90 87 82 81 97 96 93 93 98 98 98 98 98 98 99 99 99 99 99 97 96 87 92 86 86 86 82 83 81 85 78 76 90 88 89 92 88 79 78 82 83 82 84
89 85 80 81 87 89 93 92 93 90 91 87 91 99 99 95 99 99 99 98 97 97 94 92 90 87 84 80 80 81 80 78 82 90 92 94 93 86 79 81 83 84 84
91 88 86 92 86 89 96 89 85 83 83 83 87 96 98 99 98 99 99 98 97 98 94 94 90 88 83 79 79 81 79 75 83 91 91 95 95 93 86 81 83 83 82
87 90 86 85 84 83 89 86 80 78 81 83 88 94 98 98 99 98 99 98 98 97 95 92 89 86 84 84 82 82 81 76 83 91 90 92 96 96 93 87 81 77 80
83 85 85 82 75 77 77 76 77 79 80 86 88 97 97 97 98 98 98 99 98 97 93 92 88 90 91 89 89 88 84 78 73 86 88 90 91 96 95 92 85 81 82
81 87 83 77 76 74 74 75 75 82 85 91 97 98 96 95 96 98 98 98 98 98 95 94 92 94 94 93 92 90 86 80 68 70 76 79 80 78 91 94 89 86 84
77 86 87 82 79 77 75 76 77 83 93 95 97 96 96 95 93 96 97 98 97 98 97 93 94 92 95 94 92 92 91 87 81 76 76 75 76 77 89 96 96 92 91
71 80 87 88 82 80 83 83 87 89 96 95 95 93 94 91 94 94 96 96 95 97 97 97 93 95 92 92 86 89 92 95 96 95 92 88 84 87 93 91 89 91 91
70 76 84 90 92 88 88 90 90 93 95 97 92 90 92 87 92 93 92 94 96 93 93 93 95 94 97 96 95 94 96 95 96 98 96 96 95 94 91 88 83 81 82
72 74 76 79 87 89 88 87 86 88 92 90 90 90 90 88 87 89 90 92 94 93 96 95 94 97 96 97 95 94 95 94 88 88 92 90 91 82 74 71 75 77 77
70 73 73 73 77 80 77 77 88 88 97 96 93 92 90 87 87 83 87 88 93 89 90 94 93 93 96 98 93 92 96 94 93 84 80 79 84 76 68 68 68 68 73
65 64 68 71 72 76 72 74 73 80 76 81 81 84 87 87 87 86 85 85 91 89 92 92 93 91 93 97 98 96 90 91 95 85 67 75 77 72 72 68 70 69 74
53 61 65 70 71 74 71 70 71 70 66 67 75 84 86 89 87 85 86 88 88 91 90 92 94 92 94 93 95 98 94 95 94 86 76 79 80 75 71 74 73 73 78
51 52 63 69 72 73 73 72 72 68 72 77 81 93 90 86 89 90 88 88 86 90 90 91 90 90 88 93 90 94 94 94 96 89 77 78 87 79 74 76 81 79 81

GFSSE_sfc_rhum_255.txt.gz
RH
52 58 93 94 92 93 94 93 91 91 90 89 89 90 91 91 91 91 88 86 84 81 76 77 80 76 75 77 79 82 84 88 84 76 79 76 78 79 83 86 76 60 86
53 61 93 94 91 92 93 92 92 91 90 90 90 91 92 92 92 90 88 86 81 78 76 76 77 75 76 78 82 85 85 88 88 88 81 78 78 76 80 88 84 74 87
59 63 76 94 91 92 91 91 90 90 89 90 90 92 92 91 91 89 87 85 81 79 77 76 78 78 80 83 88 87 86 88 88 86 80 50 66 77 75 84 86 87 86
60 65 66 95 91 90 90 90 89 88 89 91 91 91 91 91 90 89 88 86 82 80 78 78 78 80 83 87 84 81 85 87 86 79 50 49 52 78 80 81 84 85 85
62 62 68 94 92 90 90 89 88 89 90 91 91 90 90 90 90 90 89 86 82 80 78 77 80 83 84 83 79 80 80 87 82 57 48 54 50 72 81 79 80 86 88
63 61 87 95 94 93 91 90 91 91 92 92 91 90 90 90 90 91 90 86 81 80 80 79 82 83 84 81 81 83 86 87 70 46 51 63 54 78 82 86 89 90 91
67 65 79 94 94 93 93 92 93 92 92 93 92 91 91 90 91 92 91 88 83 82 85 86 85 83 80 79 81 81 88 79 44 46 49 52 60 77 80 85 88 89 90
72 72 77 91 93 93 93 94 94 94 93 93 93 92 92 92 93 93 92 91 88 87 88 88 85 80 77 79 81 82 85 74 52 53 53 50 78 76 76 82 87 90 90
73 74 77 75 84 94 95 95 95 94 94 94 94 95 94 94 94 94 93 93 92 90 88 87 84 78 78 81 81 81 88 80 51 53 51 51 84 76 75 77 79 81 83
71 72 74 71 74 80 83 96 95 95 95 95 95 95 95 94 95 94 94 92 90 88 87 85 80 78 80 81 82 81 86 85 53 51 51 56 84 76 76 78 80 81 82
72 71 69 70 74 77 76 82 93 94 94 96 92 94 91 62 69 76 79 91 88 86 84 81 79 78 80 81 81 80 76 45 54 52 50 88 84 76 77 80 82 82 81
73 73 68 71 73 74 65 78 76 73 68 68 69 75 65 71 66 61 75 90 87 84 81 80 79 80 70 44 46 68 41 48 54 55 51 91 85 77 78 81 82 82 82
70 70 68 73 75 73 70 70 69 69 71 72 76 73 72 71 72 64 62 59 60 72 48 54 55 46 51 46 49 51 50 56 52 52 66 92 87 78 78 81 81 80 82
69 70 68 67 78 77 68 68 68 68 72 74 74 77 75 70 74 69 59 58 59 51 54 51 47 56 58 58 58 58 56 48 53 53 65 93 90 82 78 80 82 81 81
70 69 69 69 79 75 75 68 70 69 70 72 80 79 68 67 73 67 64 58 53 55 52 54 51 52 56 59 58 57 55 54 56 53 54 93 94 90 83 80 82 81 80
66 72 71 72 76 77 72 75 74 71 69 71 78 83 78 69 72 67 67 61 57 55 52 53 52 50 52 55 58 60 56 51 56 61 54 64 95 95 92 83 78 80 80
64 69 76 78 75 79 74 73 70 68 68 73 76 83 79 74 74 70 64 63 56 58 64 59 59 56 54 57 60 60 56 56 52 59 55 53 62 97 94 88 83 84 84
63 72 75 74 80 81 75 72 66 66 71 74 75 82 82 76 72 72 64 63 60 60 57 54 53 54 57 59 60 58 58 56 54 60 54 58 70 69 89 92 89 86 88
64 70 75 76 79 80 76 72 72 75 78 77 79 82 81 76 74 68 61 62 69 60 60 56 57 57 63 63 59 60 62 70 66 66 58 68 71 64 72 95 93 93 91
64 68 72 72 77 80 75 77 76 79 80 82 84 75 77 73 74 71 61 64 65 61 63 63 60 59 58 58 54 62 69 88 89 87 78 75 75 77 76 73 74 81 92
67 70 73 74 77 74 75 81 82 84 87 88 81 74 76 73 73 74 62 66 66 64 66 72 66 64 65 69 70 76 76 75 87 92 87 81 83 78 84 80 80 78 82
68 72 73 72 75 74 71 72 73 76 81 82 79 75 75 75 74 71 68 66 70 66 73 76 74 72 70 75 68 71 83 79 65 70 74 78 79 66 68 72 74 74 70
65 71 73 72 73 74 71 72 73 76 78 87 82 78 75 75 75 72 72 68 72 70 71 78 76 73 74 78 74 66 78 72 72 62 71 68 72 78 68 69 71 72 72
64 66 68 72 72 74 74 76 80 74 76 75 75 76 74 76 73 73 71 72 74 71 74 74 72 74 71 72 76 69 71 66 70 67 62 69 67 69 67 62 66 68 73
60 65 68 68 70 74 77 76 78 75 65 62 69 77 78 78 75 71 73 75 75 72 75 79 78 78 75 67 69 72 71 66 72 60 66 72 67 65 64 64 66 69 66
60 67 69 68 66 71 74 75 78 74 68 61 70 74 76 73 75 76 73 74 73 74 75 75 79 80 74 68 64 66 68 70 73 66 61 69 66 64 58 56 59 60 63